C/2020 S8 ( Lemmon )

Japanese version
Home page
Updated on February 21, 2021

---------------------------------------------------------------------

* Profile

Discovery Date September 18, 2020
Magnitude 20.1 mag
Discoverer Mount Lemmon Survey

* Pictures

* Orbital Elements

Epoch 2021 Apr. 16.0 TT = JDT 2459320.5
T 2021 Apr. 10.92842 TT                                 Rudenko
q   2.3639013            (2000.0)            P               Q
z  +0.0036473      Peri.  160.33215     -0.81633381     -0.42923922
 +/-0.0000052      Node    24.05196     -0.56862512     +0.47989798
e   0.9913781      Incl.  108.51838     +0.10131429     -0.76514811
From 86 observations 2020 July 29-2021 Jan. 17, mean residual 0".5.

* Magnitudes Graph

        m1 = 12.5 + 5 log d + 10.0 log r

---------------------------------------------------------------------

The orbital elements are published on M.P.E.C. 2021-B143.
The magnitudes graphs are made with Comet for Windows.

---------------------------------------------------------------------

Copyright(C) Seiichi Yoshida (comet@aerith.net). All rights reserved.